Wind_Speed
52 53 53 52 52 50 48 47 45 44 43 42 41 39 38 36 34 34 33 32 31 29 24 20 22 27 30 30 29 29 28 27 26 25 24 24 26 28 25 21 20 19 19 20 21 20 20 21 22 21 20 19 18 17 16 15 17 18 18 16 16 16 16 16 16 16 16 17 17 17 17 18 18 18 18 18 17 17 17 16 16 15 15 15 16 17
52 52 51 50 51 49 47 46 45 44 43 42 42 40 38 36 35 34 33 32 31 29 26 24 27 29 30 31 31 30 29 26 24 24 24 25 28 28 25 23 21 19 18 18 19 19 19 21 22 22 21 20 19 18 17 16 17 17 17 16 16 15 15 16 16 15 16 16 17 17 18 18 18 19 19 19 19 18 18 18 17 17 17 17 17 18
52 52 51 51 50 48 47 46 45 44 42 42 42 40 38 36 35 33 32 33 32 30 27 28 30 31 31 32 32 31 29 27 26 27 28 29 30 29 25 22 21 20 18 19 19 20 21 22 23 22 21 20 20 19 18 17 18 18 17 17 16 16 15 15 15 15 15 16 17 18 18 18 18 18 19 19 19 19 19 19 18 18 19 19 19 19
50 51 51 50 49 48 47 46 45 44 43 43 43 41 38 36 35 33 32 33 32 28 27 30 31 32 33 33 32 30 29 29 30 31 31 31 30 28 26 23 23 21 18 17 16 17 20 21 22 22 21 20 19 18 17 17 18 18 18 18 17 17 16 16 15 15 15 16 17 17 18 18 18 18 18 19 19 19 20 19 19 19 20 20 20 20
47 49 49 49 48 48 47 47 46 45 44 44 44 41 38 36 35 33 32 33 31 28 30 32 33 34 34 34 31 29 29 29 31 30 30 33 31 28 28 26 24 21 15 14 14 16 18 19 21 21 21 20 18 17 17 17 18 19 19 19 18 18 17 16 15 15 16 16 17 17 18 18 18 18 18 19 20 20 20 20 20 20 20 20 21 21
47 47 47 47 48 47 48 48 47 45 44 44 44 41 37 35 33 32 32 34 32 31 33 34 36 36 35 34 31 30 30 29 31 30 27 31 31 26 25 25 20 15 13 13 14 16 18 19 20 21 20 19 18 18 18 18 19 20 20 20 19 18 17 16 16 16 16 17 17 18 18 18 18 18 19 19 20 20 20 20 20 20 21 21 21 22
47 46 45 46 47 47 49 49 47 46 44 44 43 40 36 34 33 33 34 34 33 34 35 37 39 37 35 34 31 30 30 28 29 28 25 29 32 25 22 20 13 10 11 12 14 17 19 20 21 21 20 19 19 19 19 19 20 20 20 19 19 18 18 17 17 17 17 18 18 19 19 18 18 19 19 20 20 20 20 20 20 20 21 21 22 22
47 47 45 45 47 48 49 48 47 46 45 45 42 38 35 33 32 33 33 33 34 36 37 37 38 37 35 33 31 30 30 28 27 27 26 30 31 23 20 15 7 7 10 12 15 17 19 21 22 22 20 19 20 20 20 21 21 21 20 20 19 19 18 18 18 18 18 19 19 20 19 19 19 19 19 20 20 20 20 20 21 21 21 22 22 23
49 48 45 44 45 46 46 46 46 46 46 45 41 37 35 32 30 30 30 31 35 38 38 37 38 37 36 33 32 31 31 30 28 27 28 31 28 22 20 15 7 7 9 12 15 16 17 19 21 22 22 21 22 22 22 22 22 22 21 21 20 20 19 20 20 19 19 20 20 20 19 19 19 19 20 19 19 20 20 20 21 22 22 23 23 23
50 47 45 44 43 44 44 45 45 46 46 44 39 36 34 32 30 30 31 33 39 42 39 38 37 37 36 34 34 33 33 33 31 30 30 30 28 25 22 18 12 10 10 11 14 14 14 15 18 21 22 23 24 24 24 23 23 22 21 21 21 21 21 21 21 20 20 20 20 19 20 20 20 21 20 20 20 20 21 21 21 22 22 23 23 23
49 48 47 44 44 44 45 45 45 46 46 42 37 36 35 34 33 33 35 37 42 43 40 39 38 38 37 36 36 35 33 32 29 27 26 25 24 23 21 18 14 12 12 13 14 13 12 14 18 20 23 25 26 26 25 24 23 22 22 22 22 22 22 22 21 21 21 20 20 20 21 21 21 21 21 21 21 21 21 21 22 22 23 23 23 23
49 49 48 45 46 46 45 45 44 45 46 41 37 37 37 36 36 38 40 41 42 41 39 40 40 41 41 39 37 35 32 30 26 23 21 21 20 19 18 16 14 12 14 16 18 17 17 17 20 22 23 25 25 25 26 25 23 23 23 23 23 23 23 23 22 22 21 20 20 20 21 21 21 22 22 22 22 22 22 22 22 22 23 23 23 23
49 50 49 48 49 49 47 47 47 47 46 42 40 40 40 40 41 42 44 44 42 40 40 43 44 44 42 39 37 34 30 26 25 22 19 19 19 18 17 15 15 16 17 19 20 20 19 20 23 24 25 24 21 22 24 24 23 23 24 24 24 23 24 24 23 23 22 21 21 21 21 21 22 22 22 23 23 23 23 23 23 23 23 23 23 23
50 52 52 51 51 51 50 50 49 49 48 44 44 45 45 45 47 47 47 46 43 40 42 45 47 46 43 40 37 35 28 24 24 24 22 21 20 19 19 19 19 19 19 20 21 20 21 22 24 26 25 24 23 22 23 23 23 25 25 25 24 24 25 25 24 23 22 22 22 22 22 22 22 22 23 23 23 23 24 24 24 23 23 24 24 23
52 54 54 54 53 53 52 51 49 48 46 44 45 46 47 48 49 49 49 47 45 43 44 46 47 48 45 41 38 35 32 28 27 25 24 25 23 21 21 21 19 19 20 20 21 21 21 22 24 26 25 26 26 25 24 24 25 26 26 25 24 25 26 25 24 23 22 22 22 23 23 23 23 23 23 23 24 24 24 24 24 24 24 25 25 24
50 51 51 53 54 53 52 51 49 48 45 44 46 48 48 47 47 48 48 48 47 45 44 45 47 47 45 42 39 37 34 32 30 27 24 24 22 21 20 19 19 20 20 20 22 24 23 21 22 24 25 27 29 28 27 26 27 27 26 25 25 26 25 24 23 23 22 22 23 23 24 24 24 24 24 24 24 25 25 25 25 25 25 26 26 25
48 49 49 50 51 51 51 51 50 49 47 46 48 50 47 45 47 48 48 48 48 45 44 46 47 46 45 43 41 39 37 35 34 31 27 24 22 20 20 19 19 20 19 20 21 24 24 23 22 23 25 27 30 29 28 27 28 27 26 25 26 26 25 24 24 23 23 23 23 24 24 24 24 24 25 25 25 26 26 26 27 26 27 27 27 27
45 46 47 49 50 49 49 49 49 48 47 47 48 48 47 47 49 49 48 48 47 44 45 47 48 46 45 44 42 41 41 39 36 31 25 23 22 20 20 21 21 21 20 19 21 23 24 25 25 24 25 27 30 29 27 27 28 27 26 26 27 26 25 25 25 24 23 23 23 24 24 24 24 25 25 26 27 27 27 28 27 27 28 28 28 27
41 42 44 46 48 47 47 48 49 49 48 46 45 47 48 50 51 51 51 50 48 47 47 47 48 47 46 44 42 41 39 38 38 32 23 21 23 22 22 22 23 22 21 20 21 23 25 26 27 26 26 28 29 28 26 26 27 28 27 27 27 26 26 26 25 24 23 23 24 24 25 25 25 25 26 27 28 28 29 29 28 28 28 28 28 28
42 41 42 43 45 45 46 48 49 51 50 47 47 48 49 49 50 51 53 52 48 48 48 47 48 48 47 45 42 39 36 34 35 33 27 24 25 25 25 25 25 24 23 23 24 25 25 26 27 27 27 29 29 28 27 27 28 29 28 27 27 26 26 26 25 25 24 25 25 26 26 26 26 26 27 28 29 29 30 30 30 29 29 29 29 28
42 41 41 41 43 44 47 48 48 49 51 51 51 52 51 50 50 51 53 52 48 47 49 48 48 46 45 45 41 37 34 31 29 30 29 27 27 28 29 28 27 25 25 26 28 28 25 24 26 28 29 28 28 29 28 28 30 30 28 27 26 26 26 26 26 26 26 26 27 27 27 27 28 28 28 28 29 30 31 31 31 30 30 30 29 29
42 41 40 40 42 43 44 45 45 46 50 51 51 51 52 53 53 53 54 54 51 51 50 49 47 43 42 42 40 37 34 31 30 30 30 29 29 30 30 29 27 26 26 29 30 29 27 23 23 26 28 28 28 29 29 30 31 30 29 28 27 27 26 26 27 27 28 28 28 28 28 29 29 29 29 29 29 31 32 32 32 31 31 31 30 29
43 42 41 41 42 43 41 41 41 42 46 48 48 49 51 53 54 54 55 56 55 53 51 49 46 41 40 40 38 35 32 31 31 32 32 32 32 31 31 30 29 28 28 30 31 29 27 25 23 24 26 27 29 30 30 31 31 30 29 29 28 28 28 27 28 28 29 29 30 30 30 30 30 30 29 29 30 31 32 33 33 32 32 32 32 31
44 43 42 41 42 43 41 40 40 41 44 47 48 48 50 53 54 53 52 53 54 52 50 48 47 43 40 37 35 34 33 33 34 35 35 34 32 31 31 30 31 31 30 30 30 28 27 26 25 25 25 26 29 30 31 32 32 31 30 30 30 29 29 28 28 28 29 30 31 32 32 31 31 31 31 31 32 32 33 34 34 34 34 34 34 34
43 42 42 41 40 40 39 39 41 43 45 48 48 48 49 51 53 53 51 50 50 50 49 47 48 46 41 36 34 34 34 34 35 36 35 33 31 30 29 28 29 30 30 30 29 28 28 27 27 26 25 26 28 31 32 33 32 31 30 30 30 30 29 29 29 29 30 32 33 33 32 32 32 32 32 32 33 33 34 34 34 35 35 35 36 36
41 41 41 41 40 40 40 40 42 44 46 48 49 49 49 50 53 54 52 51 51 51 51 49 48 46 43 40 37 35 34 33 32 33 32 31 30 29 29 30 31 31 30 30 28 27 27 28 28 28 27 27 29 31 33 33 32 31 31 31 30 30 30 31 31 31 33 33 33 33 32 32 32 33 34 34 34 35 35 35 35 36 36 36 37 37
39 40 41 41 40 40 40 40 40 41 45 48 49 49 49 49 51 51 50 51 52 51 49 49 48 44 42 42 41 38 36 34 32 31 30 30 29 29 30 30 30 30 29 29 28 27 27 28 28 28 28 29 30 32 33 33 32 32 32 31 31 31 32 33 33 34 34 33 33 33 33 33 34 34 35 35 35 35 36 36 36 36 37 37 38 38
40 41 42 42 41 41 41 40 40 40 41 45 47 48 48 48 48 47 47 49 51 49 46 46 46 43 40 40 40 39 37 35 32 30 31 31 30 30 30 29 28 28 27 27 28 29 29 30 30 30 30 31 32 32 33 33 33 33 33 33 33 34 34 34 34 34 34 34 34 34 34 34 35 35 35 35 36 36 36 36 37 37 37 38 38 39
42 42 43 43 43 43 42 42 43 41 40 41 45 48 48 48 47 45 46 49 51 50 47 43 42 41 39 39 38 35 34 33 32 31 33 33 32 32 31 30 29 29 28 28 28 29 31 32 32 33 33 32 32 33 34 34 34 34 34 35 36 36 35 34 34 34 34 35 35 35 35 36 36 36 35 36 36 36 37 37 37 37 38 38 39 39
42 42 44 45 46 45 44 44 44 42 41 41 44 48 49 48 48 46 45 49 51 51 49 44 39 38 38 38 38 36 34 34 34 35 35 35 34 33 32 33 33 34 34 34 34 33 33 33 34 34 34 33 33 34 34 34 35 36 37 38 37 36 34 34 33 34 35 36 36 36 37 37 36 36 36 36 36 37 37 37 38 38 38 39 39 39
43 44 46 47 47 46 45 45 44 42 42 41 42 48 51 48 48 48 47 50 54 54 52 48 43 40 38 37 38 38 38 37 36 36 36 35 34 33 33 34 35 35 36 36 37 37 36 34 34 33 33 34 35 35 36 36 37 38 39 38 36 34 33 33 34 35 36 37 37 37 38 37 37 36 36 37 37 38 38 39 39 39 39 40 40 40
43 44 46 46 46 47 47 47 44 41 41 41 41 47 52 50 48 49 50 52 54 54 53 51 47 43 39 36 35 37 38 39 38 38 37 36 36 34 32 32 31 32 32 33 34 36 37 35 33 31 32 35 37 38 38 39 41 40 38 36 34 33 32 33 35 37 37 38 38 39 38 38 37 37 37 37 38 38 39 40 40 40 41 41 41 41
43 43 43 44 45 46 47 47 44 41 41 42 43 48 52 51 48 49 50 51 52 52 52 49 44 40 37 35 33 34 36 37 38 38 38 37 37 35 33 31 30 30 31 32 33 34 35 35 34 33 34 37 39 40 40 42 42 39 36 33 33 33 33 35 37 38 38 39 39 39 39 38 38 38 38 39 39 40 40 41 41 41 41 42 42 42
43 40 40 43 45 45 45 45 44 44 43 42 45 50 53 52 49 48 48 49 50 51 50 45 40 36 35 33 32 33 34 35 36 37 36 35 35 34 33 32 30 30 31 32 31 31 33 35 35 35 36 37 38 39 41 42 40 36 33 32 33 34 36 37 38 38 39 40 40 39 38 38 38 39 39 40 40 41 41 41 41 41 41 41 41 42
42 40 38 41 44 44 43 42 43 45 45 43 45 50 53 53 50 47 47 48 49 49 48 45 40 36 35 34 34 35 36 37 38 38 37 36 35 34 34 32 30 29 31 31 29 30 32 33 34 35 35 35 36 38 39 39 36 33 32 33 34 36 37 38 39 39 40 40 39 38 38 38 39 39 40 40 40 41 41 41 41 40 40 40 40 40
40 40 38 37 40 42 43 42 42 44 45 45 45 48 52 55 53 50 48 49 49 48 47 46 42 39 37 37 37 37 38 39 39 39 39 38 37 36 34 32 30 30 31 32 31 30 31 30 30 31 32 33 34 36 36 35 33 33 34 35 36 37 38 39 39 40 40 39 38 37 37 38 38 39 39 40 40 40 40 40 39 39 38 38 39 40
35 36 36 34 35 38 41 42 41 41 43 45 45 47 51 55 55 52 48 48 48 48 48 48 45 41 41 41 40 39 39 39 40 41 41 40 38 36 33 31 31 31 31 31 29 28 28 27 27 29 30 31 33 33 33 33 33 34 35 36 37 38 38 39 39 39 38 37 37 37 37 37 37 38 38 39 39 39 39 38 38 38 38 39 40 40
33 33 34 32 32 36 39 39 39 39 40 42 44 46 50 53 55 52 48 47 48 49 50 50 47 44 43 43 42 41 40 41 41 41 40 38 35 34 33 32 31 30 27 26 25 24 25 26 26 27 29 30 31 32 32 33 34 36 37 37 38 38 38 38 38 37 36 36 36 36 36 36 37 38 38 38 38 38 38 38 38 38 38 39 40 41
33 32 35 32 29 34 39 39 37 37 37 38 40 43 47 51 53 52 50 49 51 51 51 51 48 45 44 43 42 42 42 41 40 38 36 33 32 32 32 29 26 25 24 23 23 23 24 26 26 27 28 30 31 32 33 34 35 36 37 37 37 37 37 36 35 35 35 36 36 36 35 36 37 37 38 38 37 37 37 37 37 38 38 39 41 43
33 32 35 32 27 32 39 40 38 36 35 35 35 37 42 48 52 54 52 51 50 50 50 49 47 45 45 44 43 43 42 40 39 38 36 33 31 32 31 26 22 22 22 23 24 25 26 27 28 29 30 30 31 32 33 34 35 35 35 36 36 35 34 34 34 35 35 36 35 35 36 37 38 37 37 37 36 36 36 36 37 38 39 41 43 44
33 32 33 30 28 32 38 40 39 36 34 33 33 34 39 44 49 52 51 49 47 48 49 49 47 46 45 45 44 43 41 42 42 41 38 35 33 32 30 27 24 23 24 24 26 27 28 29 29 30 30 30 31 31 32 33 33 33 33 33 33 33 33 33 34 35 35 35 35 36 37 37 37 36 36 35 35 35 35 36 37 39 40 41 42 43
33 33 32 30 30 32 36 37 36 34 32 31 31 33 36 41 44 46 47 46 45 46 48 50 49 47 46 44 44 43 43 44 44 41 38 36 34 31 28 26 24 24 25 26 27 28 28 29 29 29 29 30 30 31 31 31 31 31 31 31 32 32 33 34 34 35 35 35 35 36 37 36 35 34 34 34 34 34 35 36 37 38 39 40 40 41
32 32 32 31 30 30 32 32 31 29 27 26 26 28 31 35 39 42 44 44 44 45 46 47 47 48 48 46 45 45 45 45 43 40 38 36 33 30 27 25 24 24 25 26 27 27 27 27 28 28 29 29 30 30 30 30 30 30 31 31 32 32 33 34 34 34 34 34 35 35 34 33 33 32 32 32 32 33 34 35 36 37 37 38 38 38
28 30 31 31 30 29 28 26 25 24 23 23 23 24 26 29 33 36 39 40 41 43 45 47 46 45 45 45 45 45 44 42 40 39 38 36 33 29 27 25 23 22 23 23 24 24 25 26 26 28 28 29 29 29 29 29 30 30 30 30 31 32 33 33 33 33 33 32 32 31 31 31 30 30 30 30 31 32 33 34 35 35 35 35 35 36
24 26 27 28 29 27 25 23 22 23 23 24 24 25 25 26 27 29 30 33 34 36 39 42 44 43 41 41 41 41 40 38 37 36 35 33 31 29 27 26 24 23 22 23 23 24 24 25 26 27 28 28 29 29 29 29 29 29 30 30 31 31 31 30 30 30 30 29 29 29 29 28 27 27 28 29 30 31 31 32 33 33 33 33 33 34
21 22 24 25 26 25 24 23 23 24 25 25 25 25 26 26 26 25 25 27 29 30 31 34 38 40 39 38 37 37 36 35 33 32 31 31 30 29 27 26 25 24 24 24 24 24 25 26 26 27 27 28 28 28 28 28 29 29 30 30 29 29 28 28 27 27 27 27 27 26 25 25 25 26 27 28 29 29 30 30 30 31 31 31 32 32
18 19 22 23 23 24 23 23 23 24 24 24 24 25 27 27 27 26 24 23 24 27 30 32 34 35 35 35 34 34 32 31 30 30 29 30 29 28 27 25 25 24 24 24 24 24 25 25 26 26 26 27 27 27 27 28 28 28 28 27 26 26 25 25 25 25 25 24 24 23 23 23 24 26 27 27 28 28 28 29 29 29 30 30 30 30
18 19 21 22 23 22 22 22 22 23 22 20 18 21 25 28 28 27 25 23 22 24 28 31 31 31 30 30 30 30 29 29 28 28 28 27 26 25 25 24 24 23 23 22 23 23 24 24 24 24 25 25 25 25 25 25 25 25 24 24 23 23 23 23 23 23 22 21 21 21 22 23 24 25 26 27 27 27 27 27 28 28 28 28 28 28
20 19 20 21 21 19 18 19 21 22 22 19 15 15 19 25 27 26 24 22 22 24 27 30 31 30 29 28 27 28 28 27 26 25 25 24 23 23 24 24 23 22 22 22 22 23 23 23 23 23 23 23 22 22 22 22 22 21 21 21 21 22 22 22 21 20 19 19 20 21 22 23 24 25 25 26 26 26 26 26 26 26 26 26 27 27
18 17 17 18 17 16 16 18 19 21 21 19 16 14 16 20 23 24 23 22 22 24 27 29 30 29 27 26 25 26 26 25 24 23 22 21 21 23 24 23 23 22 22 22 22 23 22 22 22 22 21 21 21 20 20 20 20 20 20 21 21 21 20 19 18 17 18 18 20 21 22 23 24 25 25 26 26 26 26 25 25 25 25 25 26 26
16 17 18 19 19 19 19 19 19 20 19 18 17 17 17 18 20 22 23 23 24 25 25 25 24 23 23 22 22 23 24 24 24 23 22 22 23 25 25 24 23 23 22 22 22 22 21 21 21 21 20 20 20 19 19 19 19 19 20 20 20 18 17 16 16 17 18 19 20 22 23 24 25 25 25 26 26 25 25 25 24 24 24 25 25 26
Wind_Direction
221 221 222 223 223 222 222 225 226 225 222 223 222 219 215 213 215 220 224 227 230 231 229 221 215 220 226 231 233 234 233 229 229 232 233 233 235 237 233 231 235 234 233 236 237 240 242 243 244 244 244 244 247 251 258 259 253 252 253 250 252 257 263 270 276 279 280 280 279 277 273 270 267 266 268 271 275 278 281 284 289 294 298 302 305 306
220 221 221 222 222 221 222 223 224 223 222 223 224 221 216 212 212 218 222 226 230 229 225 218 215 218 224 229 231 232 233 231 231 232 232 230 232 233 228 226 229 230 232 234 233 234 235 236 238 240 240 242 245 249 255 257 251 247 245 247 253 258 263 270 276 277 278 277 276 275 272 269 266 266 268 271 275 280 283 287 292 297 299 301 304 304
220 221 220 220 219 219 220 221 222 222 221 223 225 223 219 214 211 214 220 225 227 225 218 210 209 213 220 227 229 230 230 229 231 230 226 225 227 227 221 220 225 225 228 233 233 234 233 234 235 236 238 241 244 249 253 251 245 242 243 247 253 257 263 269 274 276 276 275 274 273 272 271 268 267 269 271 275 280 284 289 294 297 299 301 303 305
223 222 219 218 217 216 218 219 220 219 219 222 225 224 220 216 211 211 216 222 223 215 206 203 206 211 218 225 228 229 229 227 229 228 224 223 224 222 216 217 221 220 224 229 231 233 233 234 237 238 239 241 243 247 248 243 240 242 245 249 251 254 260 266 272 275 275 275 273 273 273 272 272 271 272 274 277 281 285 290 294 296 298 301 304 306
225 224 221 218 216 214 215 217 218 217 218 221 224 222 218 215 211 210 214 220 216 203 199 200 203 210 218 223 226 229 228 227 229 228 224 224 221 216 217 219 221 220 223 226 228 232 232 233 237 239 239 240 241 243 241 238 239 243 246 248 251 255 262 266 271 274 274 275 274 273 274 274 274 274 275 277 280 284 288 291 293 295 298 302 305 307
223 223 221 218 216 214 214 216 216 216 217 219 222 220 216 212 211 210 213 219 212 200 199 199 199 208 217 222 224 227 227 227 229 229 229 225 216 213 221 224 225 224 218 217 224 231 230 231 236 238 239 239 240 240 239 239 240 242 245 248 254 260 265 268 272 275 275 275 275 275 275 274 274 274 275 278 281 285 289 292 294 297 300 303 305 306
222 222 219 217 216 214 215 215 215 215 215 217 219 218 214 210 210 210 212 217 210 197 197 196 198 208 217 220 223 226 227 227 225 226 233 225 212 214 225 225 224 214 204 214 229 233 229 230 236 239 239 238 239 239 240 241 241 243 246 251 257 262 266 271 273 275 275 276 276 275 275 274 273 274 275 278 281 285 288 292 294 297 300 302 304 304
221 222 218 215 214 214 215 215 214 213 212 213 215 214 211 208 210 213 214 217 208 195 194 196 200 210 219 222 223 226 227 226 221 219 223 219 212 219 230 230 227 206 207 225 235 234 229 231 236 240 242 240 240 239 239 241 242 245 250 255 260 263 267 271 273 274 275 275 275 275 275 274 273 273 275 279 282 285 288 291 294 298 301 302 303 304
220 221 218 214 213 212 212 213 213 212 211 211 210 210 208 205 208 215 216 217 206 192 192 199 204 212 221 223 222 224 226 225 222 217 215 215 217 229 237 241 244 221 226 237 235 231 229 231 239 244 246 245 242 241 239 240 242 246 252 257 261 265 268 271 273 276 276 276 276 276 276 275 275 275 277 280 283 286 289 292 296 300 302 304 305 306
218 220 217 213 212 211 210 210 211 212 213 210 205 206 205 200 203 210 214 213 201 192 196 205 211 217 223 224 222 223 225 225 223 220 217 219 226 237 239 241 243 239 245 241 228 227 232 238 245 248 250 249 246 243 240 240 243 247 252 258 263 266 269 271 274 276 276 277 278 278 278 278 278 279 281 284 287 289 292 295 298 301 303 305 305 306
217 218 216 212 210 210 209 209 210 212 214 209 202 203 201 195 197 205 211 207 199 199 205 210 216 220 224 226 226 226 227 228 230 230 229 230 237 246 246 246 246 246 249 241 234 243 251 253 254 255 255 252 248 245 243 242 245 250 254 259 263 266 268 271 273 274 275 277 278 278 279 279 281 283 285 288 291 292 294 296 300 302 303 304 305 306
215 216 215 211 209 209 207 207 208 212 214 208 200 201 198 192 194 201 207 205 205 210 211 210 213 216 220 226 228 229 228 227 232 240 244 246 252 258 254 251 251 250 252 249 250 256 254 251 254 256 258 255 247 244 244 244 247 254 257 260 262 264 267 269 271 272 274 276 277 278 279 280 283 286 288 291 293 294 296 298 301 302 303 304 305 305
211 214 214 210 209 208 206 205 206 209 211 204 198 199 196 191 193 199 204 207 212 213 206 204 207 211 220 225 224 226 228 226 228 234 236 238 248 255 251 249 251 249 247 246 247 248 246 246 249 251 256 257 249 243 245 247 251 256 259 260 262 265 267 268 269 270 272 274 277 279 280 283 285 287 289 291 292 294 296 298 300 301 303 304 303 302
206 210 212 210 209 208 207 206 205 208 209 201 197 199 197 193 193 198 204 209 214 211 201 200 205 211 220 223 219 221 223 224 230 234 232 232 241 248 244 244 249 246 241 240 242 242 242 244 245 246 251 254 251 247 247 251 254 258 259 261 264 265 266 267 268 271 273 276 279 281 283 285 286 287 288 289 290 292 294 297 299 301 303 303 302 301
206 208 210 209 209 208 208 206 206 209 209 200 197 199 199 196 195 199 204 209 213 209 200 199 205 211 218 221 219 217 218 220 228 236 237 237 243 247 241 242 249 246 241 241 239 237 241 242 239 240 245 249 252 251 251 253 255 257 259 261 264 264 265 267 270 273 276 279 280 282 284 285 285 286 287 288 290 291 293 296 298 301 302 303 303 302
209 210 210 210 210 209 208 206 204 206 207 201 197 199 202 200 198 200 204 209 211 208 201 201 207 214 218 221 220 217 217 219 224 230 233 236 240 241 240 244 250 249 246 244 237 234 239 240 233 233 238 244 250 252 253 254 254 256 258 261 263 263 265 268 271 274 277 279 281 282 284 285 285 287 287 289 290 291 293 295 297 300 302 303 303 303
209 210 209 211 211 211 210 207 203 203 205 201 198 201 204 201 199 200 204 208 210 209 206 205 211 218 220 222 221 220 220 219 219 222 227 233 236 236 241 247 250 252 253 249 241 236 240 241 237 235 236 240 246 249 251 252 253 256 258 260 262 263 266 268 270 273 276 279 281 283 284 286 288 289 289 289 290 291 293 295 298 300 302 303 303 303
208 209 208 210 210 209 210 209 204 203 204 201 199 202 202 198 198 200 202 206 208 210 211 210 213 220 224 226 225 223 222 221 221 221 224 232 235 235 242 245 248 254 257 254 246 241 242 244 243 241 237 238 244 247 248 250 253 255 257 259 261 263 265 267 269 272 275 278 281 283 285 287 289 290 291 291 292 292 294 295 298 300 301 302 303 303
204 207 207 210 210 207 209 210 204 202 204 202 200 202 201 198 198 199 201 205 208 211 214 214 216 220 226 230 229 227 224 223 226 227 230 237 236 236 243 247 251 256 256 253 250 245 243 243 244 243 239 238 243 247 249 250 252 254 255 257 259 261 264 266 269 273 276 280 282 284 286 289 292 293 294 294 294 294 295 295 297 298 300 301 302 303
202 203 204 208 210 207 208 210 207 203 202 200 199 201 201 200 199 199 201 205 208 213 215 217 219 221 225 229 229 227 226 226 227 230 234 239 237 237 245 251 254 254 249 247 249 246 243 246 246 243 240 240 243 248 251 251 252 253 254 255 257 261 264 266 270 275 279 281 283 286 289 292 295 296 296 296 296 296 296 296 297 298 299 300 301 301
203 202 201 204 208 207 207 209 209 207 203 199 199 199 198 199 200 201 204 206 208 213 217 219 222 222 223 227 226 223 224 227 227 229 234 238 237 240 248 253 254 251 245 244 247 246 244 250 250 242 240 242 244 248 251 251 251 253 253 254 257 261 264 268 272 276 279 282 284 287 291 293 295 296 297 298 298 297 297 297 298 299 300 300 300 300
204 202 200 202 207 209 209 209 209 209 206 201 201 200 197 197 200 202 205 206 208 212 216 220 224 224 225 227 226 221 220 223 226 227 230 235 239 243 248 250 249 248 247 245 245 244 244 252 253 245 242 243 244 248 251 250 250 251 251 253 256 260 264 269 273 276 280 282 285 287 290 292 295 297 299 301 300 300 299 299 300 300 300 299 298 298
203 201 199 201 205 206 207 207 206 206 206 202 201 200 197 197 201 203 204 206 209 213 215 218 223 226 228 229 227 223 218 218 223 226 230 234 239 242 245 247 247 249 250 246 243 242 245 250 252 249 247 246 246 248 249 248 248 248 250 253 256 260 264 269 273 278 281 284 286 287 288 291 295 297 300 303 303 302 301 301 301 301 300 299 297 296
203 201 200 201 205 206 203 202 202 202 203 202 200 200 198 197 200 203 205 208 211 214 216 218 221 222 224 227 226 223 219 218 222 228 232 235 237 241 246 248 246 247 248 244 241 242 245 248 250 250 250 248 247 247 247 247 247 247 249 253 256 260 264 269 274 279 283 285 285 286 288 291 296 298 301 303 304 303 302 302 301 301 300 299 297 296
202 201 199 199 202 204 201 199 199 198 199 200 199 199 198 198 200 202 206 210 213 215 218 221 223 224 223 223 223 223 223 223 226 230 232 233 236 241 245 243 242 245 247 244 244 246 247 248 249 250 251 249 247 245 245 245 246 247 250 253 256 260 264 268 273 277 281 283 284 287 290 294 297 299 300 301 302 303 302 302 301 300 300 299 298 296
201 198 195 196 199 201 200 199 199 198 199 199 198 198 198 198 200 202 206 210 212 215 219 222 225 226 225 223 222 222 223 225 228 231 231 232 236 240 242 243 245 248 247 245 247 249 249 249 249 249 249 249 247 245 244 245 246 248 251 254 257 261 264 268 271 274 277 281 285 289 292 294 296 297 298 299 301 302 302 301 301 300 299 298 297 296
198 196 194 193 196 198 197 197 197 198 199 199 196 196 197 198 199 202 206 210 212 214 218 222 224 227 228 228 227 227 228 230 233 234 234 236 239 240 242 245 247 247 246 246 247 249 249 249 249 249 249 248 246 245 244 245 246 248 251 254 258 261 264 267 269 272 277 283 287 290 292 293 295 296 297 299 300 301 301 301 300 299 298 297 296 295
194 194 193 190 191 195 196 193 191 193 197 198 195 194 195 196 198 202 207 210 212 213 218 222 225 226 228 231 233 234 235 236 236 237 238 239 241 241 242 244 244 244 245 247 248 250 250 249 249 249 249 247 246 245 245 246 246 248 251 254 257 260 264 267 270 275 281 285 287 289 291 293 294 296 298 299 300 300 300 300 299 298 297 296 295 294
192 192 191 189 189 194 197 192 189 189 192 195 195 194 194 196 197 201 206 210 212 213 216 221 226 228 229 231 232 233 234 234 234 234 236 238 239 240 241 243 245 246 249 251 253 254 252 250 250 250 250 249 247 247 246 246 247 249 252 254 257 260 265 269 273 278 282 285 287 290 292 293 295 298 299 300 300 300 299 299 298 297 296 295 295 294
190 190 190 190 190 194 195 191 189 190 191 193 195 194 194 196 198 201 205 209 213 214 215 218 223 227 229 230 231 231 229 229 230 232 236 238 240 242 245 248 249 252 254 257 258 256 253 251 251 251 250 251 250 248 246 246 248 250 252 254 257 261 267 272 276 280 283 285 288 291 293 295 297 300 301 301 300 300 299 298 297 296 296 295 294 294
188 190 191 192 192 193 193 191 190 191 193 195 197 195 194 196 198 201 205 209 212 215 216 218 221 225 227 229 230 232 232 232 233 235 238 240 244 250 255 255 254 254 255 256 256 254 251 251 250 250 250 250 249 246 245 246 249 251 252 254 258 264 270 275 279 281 284 287 290 292 294 297 299 301 301 301 301 300 300 299 298 297 296 295 295 294
188 190 193 195 194 193 192 191 192 192 193 197 199 198 196 196 197 201 205 208 211 215 217 219 221 224 227 229 231 234 235 236 238 240 242 246 251 256 258 256 255 254 253 253 253 252 250 248 247 246 247 247 245 244 245 247 250 253 254 257 261 268 274 278 280 283 286 289 292 294 296 299 301 301 302 301 301 300 299 298 298 297 296 296 295 295
188 190 195 198 198 194 193 193 194 194 195 198 200 199 197 196 197 200 204 207 210 214 217 220 222 225 227 229 231 234 236 238 241 244 247 250 252 253 252 251 252 252 251 251 252 251 249 246 244 243 243 243 244 245 247 251 254 256 258 260 266 272 276 279 281 284 288 291 293 295 298 300 301 302 302 302 301 300 299 299 298 298 297 297 297 296
190 193 195 199 200 197 194 195 196 196 197 198 199 198 197 197 198 201 205 207 210 213 216 218 221 224 226 227 228 230 233 236 239 243 245 246 246 247 248 249 251 252 251 250 250 249 247 243 241 240 241 243 246 248 251 255 257 258 260 263 269 273 276 279 282 285 288 291 293 296 299 301 302 303 303 303 302 302 301 300 299 299 298 298 298 298
193 196 193 196 201 200 197 197 198 199 199 198 198 199 198 198 200 203 206 209 210 213 215 217 219 223 226 228 229 230 233 236 239 241 242 244 246 247 247 249 251 253 252 250 249 249 248 244 240 240 242 245 248 251 254 257 257 258 261 265 269 273 276 279 282 285 288 291 294 297 300 301 302 303 304 304 303 303 302 301 300 300 300 301 301 301
194 196 190 191 197 198 198 200 201 201 202 201 200 201 201 201 202 204 208 211 211 213 216 218 221 224 227 230 231 233 235 238 240 242 243 246 248 248 248 250 253 253 251 249 246 243 245 246 243 243 244 246 249 252 254 255 256 258 261 265 269 272 276 279 282 285 288 291 294 298 300 301 302 303 303 304 303 303 302 302 302 303 303 303 303 303
194 197 193 192 195 196 197 201 202 203 205 204 204 205 204 203 204 206 210 214 215 216 218 219 222 225 229 231 233 235 237 239 241 243 246 249 250 249 251 255 256 254 250 245 241 238 241 244 244 244 244 246 248 250 252 253 256 259 263 266 269 272 276 280 283 286 288 291 295 298 299 300 302 303 303 304 304 304 304 304 304 305 305 305 305 304
196 200 198 196 198 199 199 200 202 206 209 207 207 208 206 205 206 208 212 215 217 218 219 220 222 226 229 232 234 236 238 240 242 244 247 250 251 252 254 256 253 248 243 239 238 238 240 243 243 243 244 245 247 249 251 254 258 261 264 267 270 274 278 281 283 285 289 292 295 297 298 299 301 303 304 305 305 305 305 306 307 307 307 307 307 306
199 204 202 199 200 202 202 201 203 208 211 211 210 210 208 207 208 210 213 216 218 220 220 221 222 225 229 232 235 238 240 241 244 246 246 248 250 250 250 250 246 240 238 239 241 243 245 246 246 246 245 246 248 250 253 256 259 263 266 270 273 276 278 280 283 286 290 292 294 295 297 299 302 304 305 306 306 307 308 308 308 308 308 307 307 307
200 205 203 200 200 201 203 206 208 210 213 214 214 214 212 210 210 212 214 216 218 220 220 221 223 226 230 233 236 239 242 243 244 246 246 245 246 246 245 247 250 246 243 243 244 245 247 247 248 248 248 249 251 253 256 259 263 266 270 272 274 276 278 281 285 288 290 292 293 294 297 301 304 305 306 307 307 308 308 308 308 308 309 309 310 309
202 201 200 200 199 199 202 206 210 212 214 216 218 218 215 211 211 213 215 218 220 221 222 222 224 227 231 235 237 239 242 244 245 247 248 248 249 252 253 256 258 252 245 243 243 244 245 246 247 248 250 252 254 256 259 262 265 267 269 271 274 277 280 284 286 288 290 292 293 295 299 302 304 305 306 306 306 307 308 309 310 312 312 312 312 311
204 202 199 198 199 199 201 204 208 210 212 214 216 216 214 212 212 214 217 219 221 223 225 226 228 230 232 234 237 240 242 245 247 249 250 251 253 257 260 262 259 250 244 242 242 244 246 247 248 250 251 253 255 258 260 262 264 266 269 272 276 280 283 285 286 288 290 292 294 298 300 302 303 303 304 305 306 308 310 312 314 314 314 313 312 311
208 208 205 204 202 201 202 203 205 206 208 209 211 211 212 213 215 217 220 222 223 225 228 229 231 234 235 237 240 242 244 245 247 249 251 251 253 257 261 262 257 248 243 242 243 244 246 248 249 251 252 254 256 258 260 262 266 269 273 276 279 282 283 285 286 288 291 294 296 298 299 300 301 302 303 306 309 312 314 314 314 313 312 311 311 311
208 210 212 214 215 214 213 213 214 216 216 215 215 216 216 218 220 222 224 226 226 228 230 231 231 233 235 237 240 242 244 246 248 251 252 251 252 256 259 256 250 243 240 241 242 243 245 247 249 251 253 255 258 261 264 268 271 274 276 279 281 282 284 286 288 290 293 295 296 297 297 298 300 302 306 309 312 313 314 313 312 311 311 311 312 314
205 208 211 215 219 222 225 227 228 228 227 225 223 222 221 222 225 226 226 224 223 224 228 231 231 231 232 235 237 239 243 246 250 252 251 250 252 254 249 242 238 236 238 241 243 245 248 250 252 255 257 260 263 265 268 270 272 274 276 278 281 283 286 288 290 292 293 293 294 295 296 299 302 306 309 311 312 312 312 311 311 312 313 315 316 318
199 202 205 208 212 216 219 222 223 225 225 225 225 224 223 223 226 227 225 222 221 223 225 225 227 229 232 234 237 239 242 247 250 251 250 250 250 245 236 231 231 234 238 241 244 247 250 253 256 258 260 262 264 266 268 270 273 275 278 281 283 285 287 288 290 291 291 292 293 295 298 302 305 308 310 310 311 310 310 311 313 315 317 319 321 322
195 196 200 202 204 208 212 215 216 218 220 222 224 225 224 223 224 226 226 225 226 226 224 222 223 227 230 232 235 238 241 244 247 248 246 244 240 234 228 228 231 234 238 242 245 248 250 253 255 258 260 263 265 268 271 273 276 278 280 282 284 285 286 287 288 289 290 292 294 298 301 304 306 308 308 308 308 309 310 313 315 318 320 323 324 326
198 198 200 201 203 207 211 213 212 211 212 216 223 225 223 221 222 223 224 227 229 225 221 219 221 223 226 227 229 231 235 238 238 236 234 231 227 225 225 228 231 234 239 243 246 248 251 253 256 259 262 265 267 270 273 275 277 278 280 281 282 283 284 285 286 288 290 293 297 300 302 304 305 306 307 307 308 310 312 314 317 320 322 324 326 328
202 202 201 199 201 206 210 210 209 207 209 215 223 224 218 217 217 217 218 220 221 216 213 215 218 222 224 225 224 224 226 227 224 221 220 220 221 224 227 230 234 239 243 246 248 250 253 256 259 261 263 266 268 270 272 273 275 276 277 278 278 280 281 283 285 287 290 293 297 299 301 303 304 305 306 307 308 310 311 314 317 320 322 325 327 330
206 206 200 194 195 199 203 203 202 202 207 214 217 214 209 209 210 211 210 208 203 200 202 208 214 217 216 214 212 212 214 215 215 215 217 219 224 229 233 236 241 245 248 250 251 254 256 258 260 262 264 266 267 268 270 270 271 272 273 274 276 277 279 281 283 286 289 292 295 298 301 302 303 304 305 306 307 308 310 313 316 319 322 325 329 332
207 209 205 201 199 200 200 201 199 199 204 209 208 204 202 202 203 203 201 197 193 192 194 198 203 207 209 208 208 209 211 213 215 218 221 223 228 234 238 242 246 249 251 252 253 255 256 257 259 262 263 264 265 266 267 267 268 270 272 273 274 274 275 277 280 284 289 293 296 299 301 303 304 304 304 304 305 307 309 311 314 317 321 326 330 334
Height
5703 5706 5710 5715 5720 5725 5729 5733 5737 5741 5744 5747 5751 5755 5758 5761 5764 5766 5768 5770 5772 5773 5776 5780 5781 5781 5779 5780 5781 5783 5785 5787 5789 5791 5793 5795 5795 5796 5799 5802 5803 5804 5805 5806 5808 5810 5811 5812 5813 5814 5816 5817 5818 5819 5820 5821 5822 5822 5823 5823 5823 5823 5824 5824 5824 5824 5824 5824 5824 5824 5824 5824 5824 5824 5824 5823 5823 5823 5823 5822 5822 5821 5820 5819 5818 5818
5698 5702 5707 5712 5717 5722 5726 5730 5734 5738 5741 5744 5747 5751 5755 5759 5762 5764 5766 5768 5769 5771 5774 5776 5777 5777 5777 5777 5778 5780 5783 5785 5787 5789 5791 5792 5792 5794 5797 5799 5800 5801 5803 5804 5806 5807 5808 5809 5810 5812 5814 5815 5816 5817 5818 5819 5820 5820 5821 5821 5821 5821 5822 5822 5822 5823 5823 5823 5823 5823 5823 5823 5823 5823 5822 5822 5822 5821 5821 5821 5820 5820 5819 5818 5817 5816
5693 5698 5703 5707 5713 5719 5723 5726 5730 5735 5739 5741 5743 5747 5752 5756 5759 5762 5764 5765 5766 5769 5771 5771 5773 5774 5774 5774 5776 5778 5781 5783 5784 5784 5785 5787 5789 5791 5793 5796 5797 5799 5801 5802 5803 5805 5806 5807 5808 5809 5811 5813 5814 5815 5816 5816 5817 5818 5819 5819 5819 5820 5820 5820 5820 5821 5821 5821 5821 5821 5821 5821 5821 5821 5821 5820 5820 5820 5819 5819 5818 5818 5817 5816 5815 5814
5690 5694 5699 5704 5710 5715 5719 5723 5727 5731 5735 5737 5739 5744 5749 5753 5756 5759 5762 5762 5764 5766 5767 5768 5770 5771 5771 5771 5773 5775 5778 5780 5780 5780 5781 5783 5785 5788 5791 5793 5794 5797 5798 5800 5801 5803 5804 5805 5806 5807 5809 5811 5812 5813 5813 5814 5815 5816 5817 5817 5818 5818 5818 5818 5819 5819 5819 5819 5820 5820 5820 5819 5819 5819 5819 5818 5818 5818 5817 5817 5817 5816 5815 5813 5812 5811
5688 5692 5697 5702 5707 5711 5715 5718 5722 5727 5730 5733 5735 5740 5745 5749 5752 5756 5759 5759 5761 5763 5764 5765 5767 5768 5768 5769 5771 5773 5775 5776 5777 5778 5781 5781 5782 5785 5788 5790 5792 5795 5797 5799 5800 5801 5802 5803 5804 5805 5806 5808 5810 5810 5811 5812 5813 5814 5815 5816 5816 5816 5817 5817 5817 5817 5817 5818 5818 5818 5818 5818 5817 5817 5817 5816 5816 5816 5815 5815 5815 5814 5812 5811 5810 5809
5684 5688 5694 5700 5704 5708 5711 5714 5719 5723 5727 5729 5732 5737 5743 5746 5750 5753 5755 5756 5758 5760 5761 5762 5763 5764 5765 5766 5769 5770 5772 5774 5776 5778 5781 5783 5783 5784 5786 5789 5791 5794 5796 5797 5798 5799 5800 5801 5802 5803 5804 5806 5807 5808 5810 5810 5811 5812 5813 5814 5814 5815 5815 5815 5815 5815 5815 5816 5816 5816 5816 5816 5815 5815 5815 5814 5814 5814 5813 5813 5812 5811 5810 5809 5808 5807
5681 5685 5691 5696 5700 5705 5707 5711 5715 5719 5724 5726 5729 5735 5740 5744 5746 5749 5750 5752 5755 5756 5757 5759 5760 5762 5763 5764 5767 5768 5769 5771 5774 5778 5780 5782 5784 5784 5785 5788 5791 5793 5794 5795 5796 5797 5798 5799 5800 5801 5803 5804 5805 5806 5808 5808 5809 5810 5811 5812 5812 5813 5813 5813 5814 5814 5814 5814 5814 5813 5813 5813 5814 5813 5813 5812 5812 5812 5811 5810 5810 5809 5808 5807 5806 5805
5678 5681 5686 5691 5696 5700 5703 5708 5712 5716 5720 5722 5727 5733 5737 5741 5743 5745 5748 5750 5752 5753 5754 5757 5759 5760 5761 5763 5765 5766 5767 5769 5771 5775 5776 5778 5781 5783 5785 5789 5790 5792 5793 5794 5794 5795 5796 5797 5798 5799 5801 5803 5804 5805 5805 5806 5807 5808 5809 5809 5810 5811 5811 5811 5811 5812 5812 5812 5812 5811 5811 5812 5812 5811 5811 5810 5810 5809 5809 5808 5807 5807 5806 5805 5804 5803
5674 5677 5683 5689 5692 5696 5701 5705 5709 5713 5715 5719 5725 5730 5734 5738 5741 5743 5746 5748 5749 5750 5752 5754 5757 5757 5758 5760 5763 5763 5764 5766 5768 5771 5773 5776 5779 5782 5785 5788 5790 5790 5791 5792 5793 5793 5794 5795 5797 5798 5800 5801 5802 5803 5804 5805 5805 5806 5806 5807 5807 5808 5808 5809 5809 5810 5810 5810 5810 5810 5810 5810 5809 5809 5809 5808 5808 5807 5806 5806 5805 5804 5803 5802 5801 5800
5670 5675 5681 5686 5690 5695 5699 5702 5706 5710 5712 5717 5724 5728 5731 5735 5738 5740 5743 5744 5746 5747 5749 5752 5754 5754 5755 5757 5759 5760 5761 5762 5765 5768 5772 5776 5778 5780 5783 5786 5788 5789 5790 5791 5791 5792 5793 5794 5795 5796 5798 5799 5800 5801 5802 5803 5803 5803 5804 5804 5805 5806 5806 5807 5807 5808 5808 5808 5808 5807 5807 5807 5807 5807 5806 5805 5805 5804 5803 5803 5802 5802 5801 5800 5799 5797
5668 5672 5677 5683 5688 5691 5695 5700 5704 5706 5709 5715 5721 5724 5727 5731 5734 5737 5739 5741 5742 5743 5747 5750 5751 5752 5753 5754 5756 5758 5759 5761 5764 5767 5771 5775 5777 5779 5782 5785 5787 5788 5789 5790 5790 5791 5792 5793 5794 5794 5796 5797 5798 5800 5800 5801 5801 5801 5802 5803 5803 5804 5804 5805 5806 5806 5806 5806 5806 5805 5805 5805 5804 5804 5803 5802 5802 5801 5801 5800 5800 5799 5798 5797 5796 5795
5663 5667 5673 5679 5683 5686 5692 5696 5700 5702 5705 5712 5718 5720 5723 5727 5730 5733 5735 5737 5738 5740 5744 5747 5748 5748 5749 5751 5754 5756 5759 5761 5763 5766 5769 5773 5775 5777 5780 5783 5785 5786 5787 5788 5788 5789 5791 5792 5792 5792 5793 5795 5796 5797 5798 5799 5799 5800 5800 5801 5801 5802 5803 5803 5804 5804 5804 5804 5804 5803 5803 5803 5802 5801 5800 5800 5799 5798 5798 5798 5797 5797 5796 5795 5794 5793
5658 5663 5669 5673 5677 5682 5687 5690 5694 5697 5700 5707 5712 5715 5719 5723 5726 5728 5730 5731 5733 5737 5742 5744 5744 5745 5745 5748 5752 5755 5758 5761 5762 5764 5766 5769 5772 5775 5777 5780 5782 5783 5785 5785 5786 5787 5789 5790 5790 5790 5791 5792 5794 5795 5795 5796 5797 5798 5798 5799 5799 5800 5801 5801 5801 5801 5802 5801 5801 5801 5801 5800 5799 5799 5798 5797 5797 5796 5796 5795 5795 5794 5793 5792 5792 5791
5653 5658 5662 5668 5673 5677 5681 5685 5689 5692 5696 5702 5706 5709 5712 5716 5718 5721 5723 5726 5729 5735 5739 5741 5741 5742 5743 5746 5750 5753 5757 5759 5759 5760 5763 5767 5769 5772 5774 5777 5779 5781 5782 5783 5784 5785 5786 5787 5788 5788 5789 5790 5791 5793 5793 5794 5795 5796 5796 5796 5797 5798 5798 5798 5799 5799 5799 5799 5799 5798 5798 5798 5797 5796 5796 5795 5795 5794 5793 5793 5792 5791 5790 5790 5789 5788
5649 5652 5658 5664 5669 5673 5677 5682 5687 5691 5695 5700 5703 5706 5708 5711 5714 5717 5720 5723 5726 5731 5735 5737 5738 5739 5741 5744 5748 5751 5753 5755 5757 5758 5762 5765 5767 5770 5772 5774 5776 5778 5780 5782 5782 5783 5784 5785 5786 5787 5787 5788 5788 5790 5791 5792 5793 5793 5794 5795 5795 5795 5795 5796 5796 5797 5796 5796 5796 5796 5795 5795 5795 5794 5794 5793 5792 5792 5791 5790 5789 5788 5787 5787 5786 5785
5648 5652 5658 5662 5665 5670 5674 5679 5684 5688 5692 5697 5700 5702 5705 5711 5715 5718 5720 5722 5725 5729 5732 5733 5734 5737 5739 5742 5745 5749 5750 5752 5754 5756 5760 5763 5765 5768 5770 5772 5774 5776 5777 5779 5780 5781 5782 5783 5784 5785 5786 5786 5786 5787 5789 5790 5791 5791 5792 5793 5793 5793 5794 5794 5794 5794 5794 5793 5793 5793 5793 5792 5792 5791 5791 5790 5789 5788 5788 5787 5786 5785 5784 5784 5783 5782
5645 5650 5655 5659 5663 5669 5673 5676 5680 5684 5688 5692 5695 5698 5704 5710 5714 5716 5719 5722 5724 5727 5728 5730 5732 5734 5737 5739 5743 5746 5747 5748 5749 5752 5756 5760 5763 5765 5767 5770 5772 5773 5775 5776 5777 5778 5779 5781 5782 5783 5784 5785 5784 5785 5787 5788 5788 5789 5790 5791 5791 5791 5792 5792 5792 5791 5791 5791 5791 5790 5790 5790 5789 5788 5787 5787 5786 5785 5784 5783 5782 5781 5781 5780 5779 5778
5643 5647 5652 5655 5660 5666 5670 5673 5677 5682 5685 5688 5693 5699 5703 5707 5709 5712 5716 5718 5721 5723 5724 5727 5729 5731 5734 5736 5739 5742 5742 5744 5747 5750 5754 5757 5760 5763 5765 5768 5770 5771 5773 5774 5775 5776 5776 5778 5779 5781 5782 5782 5782 5783 5785 5786 5787 5787 5788 5788 5789 5790 5790 5789 5789 5789 5789 5789 5788 5788 5788 5787 5786 5785 5784 5783 5782 5781 5781 5780 5779 5778 5777 5777 5776 5775
5640 5644 5649 5652 5657 5662 5666 5668 5672 5677 5681 5687 5694 5697 5699 5700 5704 5709 5712 5714 5717 5719 5721 5724 5727 5729 5731 5732 5736 5739 5740 5743 5748 5752 5754 5756 5759 5761 5764 5766 5768 5770 5771 5772 5772 5773 5774 5775 5776 5778 5779 5779 5779 5780 5782 5783 5784 5784 5785 5786 5787 5787 5787 5787 5787 5787 5786 5786 5786 5785 5784 5783 5782 5781 5780 5779 5779 5778 5777 5777 5776 5775 5774 5773 5772 5771
5636 5640 5646 5650 5654 5658 5660 5663 5668 5673 5678 5685 5688 5690 5694 5699 5704 5707 5709 5711 5714 5716 5718 5721 5723 5725 5727 5729 5734 5738 5741 5744 5748 5751 5754 5756 5758 5760 5762 5764 5766 5768 5769 5769 5769 5770 5771 5772 5773 5775 5775 5776 5776 5778 5779 5780 5781 5782 5783 5784 5785 5785 5784 5784 5784 5784 5783 5783 5782 5782 5781 5780 5779 5778 5777 5776 5775 5775 5774 5774 5773 5772 5771 5770 5769 5768
5633 5638 5642 5646 5650 5652 5655 5660 5667 5672 5675 5678 5680 5683 5690 5697 5702 5706 5708 5709 5711 5714 5717 5719 5719 5723 5726 5728 5732 5738 5741 5744 5747 5750 5753 5755 5757 5758 5760 5762 5764 5765 5766 5766 5766 5767 5768 5770 5770 5771 5772 5773 5774 5775 5776 5778 5778 5779 5781 5782 5782 5782 5782 5781 5781 5780 5780 5780 5779 5779 5778 5777 5776 5775 5774 5773 5772 5772 5771 5770 5770 5769 5768 5767 5766 5765
5631 5635 5639 5643 5645 5649 5654 5661 5667 5671 5673 5675 5678 5682 5688 5693 5697 5700 5703 5706 5709 5711 5714 5716 5718 5723 5726 5727 5731 5736 5739 5742 5745 5747 5750 5752 5754 5756 5758 5760 5761 5762 5762 5762 5763 5765 5766 5767 5768 5768 5769 5771 5772 5773 5774 5775 5776 5777 5778 5779 5779 5779 5779 5778 5778 5777 5777 5777 5776 5776 5775 5774 5773 5772 5771 5770 5769 5769 5768 5767 5766 5765 5764 5763 5762 5761
5629 5632 5635 5639 5641 5646 5653 5659 5663 5668 5672 5675 5678 5682 5686 5689 5693 5696 5700 5704 5707 5708 5711 5713 5717 5721 5724 5726 5731 5735 5737 5739 5742 5744 5747 5749 5751 5753 5756 5757 5758 5759 5760 5760 5761 5763 5764 5765 5765 5766 5767 5768 5770 5771 5772 5773 5774 5774 5775 5776 5776 5776 5776 5775 5775 5775 5774 5774 5773 5773 5772 5771 5770 5769 5768 5767 5766 5765 5764 5763 5762 5762 5761 5760 5759 5758
5626 5630 5633 5636 5640 5644 5649 5655 5660 5664 5668 5671 5675 5679 5683 5686 5690 5696 5700 5704 5705 5706 5709 5711 5714 5717 5721 5724 5729 5732 5734 5737 5739 5741 5743 5745 5748 5750 5752 5754 5755 5756 5757 5758 5759 5760 5762 5762 5763 5763 5764 5766 5767 5768 5769 5770 5771 5772 5772 5773 5773 5773 5773 5773 5773 5772 5771 5771 5770 5770 5769 5768 5767 5766 5765 5764 5763 5762 5761 5760 5759 5758 5757 5756 5755 5754
5624 5628 5631 5634 5638 5643 5648 5651 5655 5659 5662 5666 5671 5676 5680 5685 5689 5693 5698 5701 5703 5705 5708 5710 5712 5716 5719 5723 5726 5729 5732 5734 5736 5738 5741 5743 5745 5748 5749 5751 5752 5754 5755 5756 5757 5758 5759 5759 5760 5761 5762 5763 5764 5765 5766 5767 5768 5769 5769 5769 5770 5770 5770 5770 5770 5769 5768 5768 5767 5767 5766 5765 5764 5763 5762 5760 5759 5758 5757 5756 5755 5754 5753 5752 5751 5750
5621 5625 5629 5632 5636 5640 5644 5648 5652 5656 5660 5664 5668 5673 5678 5682 5686 5690 5694 5696 5699 5703 5706 5708 5711 5715 5718 5720 5723 5726 5729 5731 5734 5736 5739 5741 5743 5745 5747 5748 5750 5751 5752 5753 5755 5755 5756 5757 5757 5758 5759 5760 5760 5762 5763 5764 5765 5765 5766 5766 5766 5767 5767 5767 5767 5766 5765 5765 5765 5764 5763 5762 5761 5760 5758 5757 5756 5755 5754 5753 5751 5750 5749 5748 5747 5746
5619 5624 5627 5631 5635 5639 5643 5647 5653 5657 5659 5662 5666 5670 5675 5679 5684 5688 5690 5693 5697 5701 5704 5706 5709 5712 5716 5718 5721 5724 5726 5729 5732 5734 5736 5738 5740 5742 5744 5745 5747 5748 5749 5751 5752 5752 5753 5754 5754 5755 5756 5756 5757 5759 5760 5761 5762 5762 5763 5763 5763 5763 5763 5763 5763 5763 5762 5762 5762 5761 5760 5758 5757 5756 5755 5754 5753 5751 5750 5749 5748 5746 5745 5744 5743 5742
5617 5621 5626 5630 5634 5638 5641 5645 5650 5655 5658 5661 5665 5669 5673 5677 5681 5684 5687 5691 5695 5698 5701 5704 5707 5711 5714 5717 5719 5722 5724 5727 5730 5732 5734 5735 5737 5739 5741 5742 5744 5745 5747 5748 5749 5750 5750 5751 5752 5753 5753 5753 5754 5756 5758 5759 5759 5759 5760 5760 5760 5759 5759 5759 5759 5760 5759 5759 5758 5757 5756 5755 5754 5753 5752 5750 5749 5748 5746 5745 5744 5742 5741 5740 5738 5737
5615 5620 5625 5629 5633 5637 5640 5643 5647 5651 5655 5659 5663 5667 5671 5674 5678 5682 5685 5689 5692 5696 5699 5703 5706 5709 5712 5715 5717 5720 5722 5725 5727 5729 5730 5732 5734 5736 5738 5740 5741 5742 5744 5745 5747 5747 5747 5747 5749 5749 5749 5751 5752 5754 5755 5756 5756 5756 5756 5756 5755 5755 5756 5756 5757 5757 5756 5755 5754 5753 5753 5752 5751 5749 5748 5747 5745 5744 5742 5741 5740 5738 5737 5735 5734 5733
5615 5620 5624 5627 5631 5635 5639 5642 5645 5649 5653 5657 5661 5665 5669 5672 5676 5680 5684 5687 5690 5694 5697 5701 5704 5707 5709 5712 5714 5717 5719 5721 5723 5725 5727 5729 5731 5733 5735 5737 5738 5740 5741 5742 5743 5744 5743 5744 5746 5746 5747 5749 5750 5751 5752 5752 5752 5752 5752 5751 5752 5752 5753 5753 5753 5753 5752 5751 5751 5750 5749 5748 5747 5745 5744 5743 5741 5740 5739 5737 5736 5734 5733 5731 5730 5728
5614 5618 5622 5626 5630 5634 5638 5641 5644 5648 5652 5655 5659 5663 5667 5670 5674 5678 5681 5684 5688 5691 5695 5698 5701 5703 5705 5708 5711 5713 5716 5718 5720 5722 5725 5727 5729 5730 5732 5734 5735 5736 5738 5738 5739 5739 5740 5741 5743 5744 5745 5746 5747 5747 5748 5747 5747 5747 5747 5748 5749 5749 5750 5750 5750 5749 5748 5748 5747 5746 5745 5744 5743 5741 5740 5738 5737 5736 5734 5733 5731 5730 5728 5727 5725 5724
5613 5617 5621 5625 5629 5633 5637 5640 5642 5646 5650 5654 5657 5661 5664 5668 5672 5675 5678 5682 5686 5689 5692 5695 5697 5700 5703 5706 5709 5711 5713 5716 5718 5720 5722 5724 5726 5728 5729 5730 5731 5732 5733 5734 5734 5734 5735 5737 5739 5741 5742 5742 5742 5743 5743 5743 5743 5743 5744 5745 5746 5746 5746 5746 5746 5745 5744 5744 5743 5742 5741 5740 5738 5737 5736 5734 5733 5732 5730 5729 5727 5726 5724 5722 5721 5719
5613 5617 5622 5625 5629 5632 5636 5639 5641 5644 5647 5651 5654 5658 5662 5666 5670 5673 5677 5681 5684 5687 5690 5694 5697 5700 5702 5705 5707 5709 5711 5713 5715 5717 5720 5721 5723 5724 5726 5727 5728 5728 5729 5730 5730 5730 5732 5733 5735 5737 5737 5738 5738 5739 5739 5739 5740 5741 5742 5742 5742 5743 5743 5742 5742 5741 5741 5740 5739 5738 5737 5736 5734 5733 5731 5730 5729 5727 5726 5724 5723 5721 5719 5718 5716 5714
5613 5617 5622 5625 5629 5633 5636 5638 5640 5642 5644 5648 5652 5656 5660 5665 5668 5672 5675 5679 5682 5685 5689 5693 5696 5698 5700 5703 5705 5707 5709 5711 5713 5714 5716 5718 5719 5721 5722 5723 5724 5725 5725 5726 5726 5727 5728 5729 5730 5731 5733 5733 5734 5735 5736 5736 5737 5738 5738 5738 5739 5739 5739 5739 5738 5738 5737 5736 5735 5734 5733 5732 5730 5729 5727 5726 5724 5723 5721 5720 5718 5716 5715 5713 5711 5709
5613 5617 5621 5624 5628 5632 5635 5636 5637 5640 5643 5646 5650 5654 5659 5663 5666 5670 5673 5676 5679 5683 5687 5690 5692 5694 5697 5699 5702 5704 5706 5708 5709 5711 5713 5715 5716 5718 5719 5720 5721 5722 5722 5722 5723 5724 5724 5725 5726 5727 5729 5730 5731 5732 5733 5733 5734 5734 5735 5735 5736 5736 5735 5735 5735 5734 5733 5733 5732 5731 5729 5728 5726 5724 5723 5721 5720 5718 5717 5715 5713 5712 5710 5708 5706 5704
5614 5618 5620 5623 5627 5630 5632 5634 5636 5639 5642 5645 5649 5652 5656 5660 5664 5667 5670 5673 5677 5681 5684 5687 5689 5691 5694 5696 5699 5701 5703 5705 5707 5709 5710 5712 5714 5715 5716 5717 5718 5719 5719 5719 5720 5721 5721 5722 5723 5725 5727 5728 5728 5729 5729 5730 5730 5731 5731 5732 5732 5732 5732 5732 5731 5731 5730 5729 5728 5727 5725 5724 5722 5721 5719 5717 5716 5714 5712 5711 5709 5707 5705 5703 5701 5699
5614 5617 5620 5623 5626 5628 5631 5633 5636 5638 5641 5644 5647 5651 5654 5658 5662 5665 5668 5672 5675 5678 5681 5684 5687 5689 5691 5693 5696 5698 5700 5702 5704 5706 5707 5709 5711 5712 5714 5714 5715 5715 5716 5716 5717 5718 5719 5720 5721 5722 5724 5724 5725 5726 5726 5727 5727 5728 5728 5729 5729 5729 5729 5729 5728 5727 5726 5725 5724 5723 5722 5720 5719 5717 5715 5714 5712 5710 5708 5706 5704 5702 5700 5698 5696 5694
5614 5617 5619 5622 5625 5627 5630 5632 5635 5637 5640 5643 5647 5650 5653 5657 5660 5664 5667 5670 5672 5675 5679 5682 5684 5686 5688 5691 5693 5695 5698 5699 5701 5703 5705 5707 5709 5710 5711 5712 5712 5712 5713 5714 5715 5715 5716 5718 5719 5719 5721 5722 5722 5723 5723 5724 5724 5725 5725 5725 5726 5726 5726 5725 5724 5724 5723 5722 5721 5720 5718 5717 5715 5713 5712 5710 5708 5706 5704 5702 5700 5698 5696 5694 5692 5690
5614 5616 5619 5621 5623 5626 5629 5632 5634 5637 5640 5643 5646 5649 5652 5656 5659 5662 5664 5666 5669 5673 5676 5679 5682 5684 5686 5689 5691 5693 5695 5697 5699 5701 5704 5706 5707 5707 5708 5708 5709 5710 5711 5712 5712 5713 5714 5715 5716 5717 5718 5719 5720 5720 5720 5721 5721 5721 5722 5722 5722 5722 5722 5721 5721 5720 5719 5718 5717 5716 5715 5713 5711 5710 5708 5706 5704 5702 5700 5698 5696 5693 5691 5689 5687 5685
5613 5616 5618 5620 5622 5625 5628 5631 5634 5636 5639 5642 5645 5648 5651 5654 5657 5659 5661 5664 5667 5671 5674 5677 5680 5682 5684 5687 5689 5691 5693 5696 5697 5698 5701 5703 5704 5704 5705 5706 5706 5707 5708 5709 5710 5711 5712 5713 5714 5715 5716 5716 5717 5717 5718 5718 5718 5718 5718 5719 5719 5719 5718 5718 5717 5716 5715 5714 5713 5712 5711 5709 5708 5706 5704 5702 5700 5698 5696 5694 5691 5689 5687 5684 5682 5679
5612 5615 5617 5620 5622 5623 5626 5629 5633 5636 5639 5641 5644 5646 5649 5651 5654 5656 5659 5664 5668 5670 5673 5675 5678 5681 5683 5685 5687 5690 5692 5692 5693 5695 5698 5700 5701 5702 5702 5703 5704 5705 5705 5707 5708 5708 5709 5710 5711 5712 5713 5714 5714 5714 5715 5715 5715 5715 5715 5715 5715 5715 5715 5714 5714 5713 5712 5710 5709 5708 5706 5705 5704 5702 5700 5698 5696 5694 5692 5689 5687 5684 5682 5679 5677 5675
5612 5614 5617 5619 5621 5623 5625 5629 5632 5635 5637 5640 5642 5644 5647 5649 5652 5656 5660 5664 5667 5669 5671 5674 5676 5679 5681 5683 5685 5687 5688 5689 5691 5693 5695 5697 5698 5699 5699 5700 5701 5702 5703 5704 5705 5706 5707 5708 5709 5710 5710 5711 5711 5711 5712 5712 5712 5712 5712 5712 5712 5711 5711 5711 5710 5709 5708 5706 5705 5704 5702 5701 5700 5698 5696 5694 5692 5690 5687 5685 5683 5680 5678 5676 5673 5671
5613 5615 5617 5619 5621 5623 5626 5629 5632 5635 5637 5639 5642 5644 5646 5649 5653 5656 5659 5662 5665 5667 5668 5671 5673 5676 5678 5680 5683 5684 5685 5686 5688 5690 5692 5694 5695 5696 5697 5697 5698 5699 5700 5701 5702 5703 5704 5705 5706 5706 5707 5707 5708 5708 5708 5708 5709 5709 5709 5709 5708 5708 5707 5707 5706 5705 5704 5703 5701 5700 5699 5697 5696 5694 5692 5691 5688 5686 5683 5681 5679 5677 5675 5673 5670 5667
5613 5615 5618 5620 5622 5624 5627 5630 5633 5636 5638 5640 5642 5644 5647 5649 5652 5655 5657 5659 5662 5664 5665 5667 5670 5673 5675 5678 5680 5681 5682 5684 5686 5687 5689 5690 5692 5693 5694 5695 5695 5697 5697 5698 5699 5700 5701 5702 5703 5703 5704 5704 5705 5705 5705 5705 5705 5706 5705 5705 5705 5704 5704 5703 5702 5701 5700 5699 5698 5697 5695 5694 5692 5691 5689 5687 5685 5683 5680 5678 5676 5674 5672 5670 5667 5664
5613 5615 5617 5620 5622 5624 5627 5630 5633 5635 5636 5638 5640 5642 5645 5647 5649 5651 5653 5655 5658 5660 5662 5664 5667 5670 5672 5674 5676 5678 5680 5681 5682 5684 5685 5687 5688 5690 5691 5692 5693 5694 5695 5696 5697 5698 5698 5699 5700 5700 5701 5701 5701 5702 5702 5702 5702 5702 5702 5702 5701 5701 5700 5699 5698 5697 5696 5695 5694 5693 5692 5690 5689 5687 5686 5684 5682 5680 5678 5676 5674 5672 5669 5667 5664 5661
5612 5614 5616 5619 5621 5624 5626 5629 5630 5632 5634 5636 5638 5640 5642 5644 5646 5648 5650 5652 5654 5657 5659 5661 5664 5667 5669 5671 5673 5675 5677 5678 5679 5680 5682 5684 5685 5687 5688 5690 5691 5692 5693 5694 5695 5695 5696 5697 5697 5697 5698 5698 5698 5698 5699 5699 5699 5698 5698 5698 5698 5697 5696 5695 5695 5694 5693 5692 5691 5690 5689 5687 5686 5684 5683 5681 5680 5678 5676 5674 5671 5669 5666 5663 5660 5657
5612 5614 5616 5618 5620 5622 5624 5626 5628 5630 5632 5634 5636 5638 5640 5642 5644 5645 5647 5649 5652 5654 5656 5659 5661 5663 5666 5668 5670 5672 5674 5675 5676 5677 5679 5681 5682 5684 5686 5688 5689 5689 5690 5692 5693 5693 5694 5694 5694 5695 5695 5695 5695 5695 5695 5695 5695 5695 5694 5694 5694 5693 5693 5692 5691 5690 5690 5689 5688 5687 5686 5685 5683 5681 5680 5679 5678 5676 5674 5672 5669 5666 5664 5661 5658 5654
5611 5613 5615 5617 5619 5621 5623 5625 5626 5628 5630 5632 5634 5635 5637 5638 5641 5643 5645 5647 5649 5650 5652 5655 5658 5661 5663 5665 5667 5669 5671 5672 5673 5675 5676 5678 5680 5682 5684 5685 5686 5687 5688 5689 5690 5690 5691 5691 5692 5692 5692 5692 5692 5692 5692 5692 5692 5691 5691 5691 5691 5690 5690 5689 5688 5688 5687 5686 5685 5684 5683 5682 5680 5679 5678 5677 5675 5674 5672 5669 5667 5664 5661 5658 5656 5653
5611 5612 5614 5616 5618 5620 5622 5624 5625 5627 5628 5630 5631 5633 5634 5635 5637 5640 5642 5644 5646 5647 5650 5653 5655 5658 5660 5662 5664 5666 5668 5669 5671 5673 5674 5676 5678 5680 5681 5682 5684 5685 5686 5687 5687 5688 5688 5689 5689 5689 5689 5689 5690 5690 5689 5689 5689 5689 5689 5688 5688 5687 5687 5686 5686 5685 5684 5684 5683 5682 5681 5680 5678 5677 5676 5674 5673 5671 5669 5667 5664 5662 5659 5656 5654 5651
5611 5612 5614 5616 5618 5620 5621 5622 5623 5625 5626 5628 5629 5631 5632 5634 5636 5638 5640 5642 5643 5645 5647 5650 5653 5655 5657 5659 5662 5664 5666 5667 5669 5671 5673 5675 5677 5678 5678 5679 5681 5682 5683 5684 5684 5684 5685 5686 5686 5686 5686 5687 5687 5687 5687 5687 5687 5687 5686 5686 5685 5685 5684 5684 5683 5683 5682 5682 5681 5680 5679 5678 5676 5675 5674 5672 5670 5669 5667 5665 5662 5659 5657 5654 5651 5649
5610 5612 5613 5614 5616 5617 5618 5620 5622 5623 5625 5626 5628 5629 5631 5632 5635 5636 5638 5640 5642 5644 5646 5649 5652 5654 5657 5658 5660 5662 5664 5666 5668 5670 5672 5674 5675 5676 5676 5677 5679 5680 5680 5681 5681 5682 5682 5683 5683 5683 5684 5684 5684 5684 5684 5684 5684 5684 5683 5683 5682 5682 5682 5682 5681 5681 5680 5679 5678 5678 5677 5675 5674 5673 5671 5670 5668 5666 5664 5662 5660 5657 5655 5652 5649 5647